Météo par heure à Alifanov

Ce jour, 15 Mai, Samedi

Heure Température Précipitation Vent Pression Humidité
00:00 +19°C° 0 mm 2 m/s 754 mmHg 84%
01:00 +19°C° 0 mm 2 m/s 754 mmHg 82%
02:00 +19°C° 0 mm 3 m/s 754 mmHg 79%
03:00 +19°C° 0 mm 3 m/s 754 mmHg 77%
04:00 +18°C° 0 mm 3 m/s 754 mmHg 76%
05:00 +18°C° 0 mm 2 m/s 754 mmHg 75%
06:00 +18°C° 0 mm 2 m/s 755 mmHg 74%
07:00 +20°C° 0 mm 2 m/s 755 mmHg 70%
08:00 +21°C° 0 mm 2 m/s 755 mmHg 66%
09:00 +24°C° 0 mm 1 m/s 755 mmHg 62%
10:00 +25°C° 0 mm 1 m/s 755 mmHg 60%
11:00 +26°C° 0 mm 1 m/s 755 mmHg 58%
12:00 +28°C° 0 mm 1 m/s 755 mmHg 56%
13:00 +28°C° 0 mm 2 m/s 755 mmHg 54%
14:00 +29°C° 0 mm 2 m/s 755 mmHg 52%
15:00 +30°C° 0 mm 2 m/s 755 mmHg 50%
16:00 +29°C° 0 mm 1 m/s 755 mmHg 53%
17:00 +29°C° 0 mm 1 m/s 755 mmHg 55%
18:00 +29°C° 0 mm 1 m/s 755 mmHg 58%
19:00 +27°C° 0.1 mm 1 m/s 755 mmHg 62%
20:00 +25°C° 0.1 mm 1 m/s 755 mmHg 67%
21:00 +23°C° 0.1 mm 1 m/s 755 mmHg 71%
22:00 +23°C° 0 mm 1 m/s 755 mmHg 73%
23:00 +22°C° 0 mm 1 m/s 755 mmHg 75%

Demain, 16 Mai, Dimanche

Heure Température Précipitation Vent Pression Humidité
00:00 +21°C° 0 mm 1 m/s 755 mmHg 77%
01:00 +21°C° 0 mm 1 m/s 755 mmHg 78%
02:00 +19°C° 0 mm 2 m/s 755 mmHg 79%
03:00 +19°C° 0 mm 2 m/s 755 mmHg 80%
04:00 +18°C° 0 mm 2 m/s 755 mmHg 75%
05:00 +18°C° 0 mm 3 m/s 755 mmHg 71%
06:00 +18°C° 0 mm 3 m/s 755 mmHg 67%
07:00 +19°C° 0 mm 3 m/s 755 mmHg 60%
08:00 +21°C° 0 mm 4 m/s 755 mmHg 53%
09:00 +23°C° 0 mm 4 m/s 755 mmHg 47%
10:00 +25°C° 0 mm 5 m/s 755 mmHg 43%
11:00 +27°C° 0 mm 5 m/s 755 mmHg 39%
12:00 +28°C° 0 mm 5 m/s 755 mmHg 35%
13:00 +29°C° 0 mm 6 m/s 754 mmHg 36%
14:00 +30°C° 0 mm 6 m/s 754 mmHg 36%
15:00 +30°C° 0 mm 6 m/s 753 mmHg 37%
16:00 +29°C° 0 mm 5 m/s 753 mmHg 42%
17:00 +28°C° 0 mm 4 m/s 753 mmHg 48%
18:00 +28°C° 0 mm 3 m/s 752 mmHg 53%
19:00 +26°C° 0 mm 4 m/s 752 mmHg 54%
20:00 +25°C° 0 mm 4 m/s 752 mmHg 55%
21:00 +22°C° 0 mm 5 m/s 752 mmHg 56%
22:00 +22°C° 0 mm 5 m/s 752 mmHg 52%
23:00 +21°C° 0 mm 5 m/s 752 mmHg 49%

Après-demain, 17 Mai, Lundi

Heure Température Précipitation Vent Pression Humidité
00:00 +21°C° 0 mm 6 m/s 752 mmHg 46%
01:00 +21°C° 0 mm 6 m/s 752 mmHg 45%
02:00 +20°C° 0 mm 6 m/s 752 mmHg 44%
03:00 +19°C° 0 mm 6 m/s 751 mmHg 43%
04:00 +19°C° 0 mm 6 m/s 752 mmHg 45%
05:00 +19°C° 0 mm 6 m/s 752 mmHg 48%
06:00 +18°C° 0 mm 7 m/s 752 mmHg 51%
07:00 +21°C° 0 mm 7 m/s 752 mmHg 49%
08:00 +22°C° 0 mm 7 m/s 752 mmHg 47%
09:00 +24°C° 0 mm 8 m/s 752 mmHg 45%
10:00 +27°C° 0 mm 8 m/s 752 mmHg 43%
11:00 +28°C° 0 mm 8 m/s 752 mmHg 40%
12:00 +29°C° 0 mm 9 m/s 752 mmHg 37%
13:00 +31°C° 0 mm 8 m/s 752 mmHg 37%
14:00 +30°C° 0 mm 7 m/s 751 mmHg 37%
15:00 +32°C° 0 mm 7 m/s 751 mmHg 37%
16:00 +30°C° 0 mm 5 m/s 751 mmHg 42%
17:00 +29°C° 0 mm 4 m/s 751 mmHg 47%
18:00 +28°C° 0 mm 3 m/s 751 mmHg 52%
19:00 +26°C° 0 mm 2 m/s 752 mmHg 59%
20:00 +24°C° 0 mm 2 m/s 752 mmHg 65%
21:00 +21°C° 0 mm 2 m/s 752 mmHg 72%
22:00 +21°C° 0 mm 2 m/s 752 mmHg 76%
23:00 +20°C° 0 mm 2 m/s 752 mmHg 80%

18 Mai, Mardi

Heure Température Précipitation Vent Pression Humidité
00:00 +19°C° 0 mm 2 m/s 752 mmHg 84%
01:00 +19°C° 0 mm 2 m/s 752 mmHg 86%
02:00 +18°C° 0 mm 2 m/s 753 mmHg 87%
03:00 +18°C° 0 mm 3 m/s 753 mmHg 88%
04:00 +18°C° 0 mm 3 m/s 753 mmHg 88%
05:00 +18°C° 0 mm 3 m/s 753 mmHg 88%
06:00 +18°C° 0 mm 3 m/s 753 mmHg 88%
07:00 +19°C° 0 mm 4 m/s 753 mmHg 82%
08:00 +20°C° 0 mm 4 m/s 753 mmHg 76%
09:00 +21°C° 0 mm 4 m/s 753 mmHg 70%
10:00 +22°C° 0 mm 4 m/s 753 mmHg 67%
11:00 +23°C° 0 mm 4 m/s 754 mmHg 63%
12:00 +25°C° 0 mm 4 m/s 754 mmHg 60%
13:00 +25°C° 0 mm 4 m/s 754 mmHg 58%
14:00 +25°C° 0 mm 3 m/s 754 mmHg 57%
15:00 +25°C° 0 mm 3 m/s 754 mmHg 56%
16:00 +24°C° 0.1 mm 3 m/s 754 mmHg 59%
17:00 +23°C° 0.1 mm 4 m/s 754 mmHg 62%
18:00 +22°C° 0.1 mm 4 m/s 754 mmHg 65%
19:00 +21°C° 0 mm 4 m/s 754 mmHg 69%
20:00 +19°C° 0 mm 3 m/s 754 mmHg 74%
21:00 +18°C° 0 mm 3 m/s 754 mmHg 79%
22:00 +17°C° 0 mm 3 m/s 754 mmHg 82%
23:00 +16°C° 0 mm 3 m/s 755 mmHg 85%

19 Mai, Mercredi

Heure Température Précipitation Vent Pression Humidité
00:00 +14°C° 0 mm 3 m/s 755 mmHg 88%
01:00 +14°C° 0 mm 3 m/s 755 mmHg 89%
02:00 +14°C° 0 mm 3 m/s 755 mmHg 90%
03:00 +14°C° 0 mm 3 m/s 754 mmHg 92%
04:00 +14°C° 0 mm 3 m/s 755 mmHg 91%
05:00 +16°C° 0 mm 3 m/s 755 mmHg 90%
06:00 +16°C° 0 mm 3 m/s 755 mmHg 89%
07:00 +18°C° 0 mm 4 m/s 755 mmHg 82%
08:00 +19°C° 0 mm 5 m/s 755 mmHg 75%
09:00 +21°C° 0 mm 5 m/s 755 mmHg 68%
10:00 +22°C° 0.1 mm 5 m/s 755 mmHg 64%
11:00 +23°C° 0.1 mm 6 m/s 755 mmHg 61%
12:00 +24°C° 0.1 mm 6 m/s 755 mmHg 57%
13:00 +25°C° 0.1 mm 5 m/s 755 mmHg 56%
14:00 +26°C° 0.1 mm 5 m/s 755 mmHg 55%
15:00 +26°C° 0.1 mm 4 m/s 755 mmHg 53%
16:00 +25°C° 0 mm 4 m/s 755 mmHg 57%
17:00 +25°C° 0 mm 4 m/s 754 mmHg 60%
18:00 +24°C° 0 mm 3 m/s 754 mmHg 64%
19:00 +22°C° 0.2 mm 3 m/s 754 mmHg 70%
20:00 +21°C° 0.2 mm 2 m/s 755 mmHg 76%
21:00 +19°C° 0.2 mm 2 m/s 755 mmHg 82%
22:00 +19°C° 0 mm 2 m/s 754 mmHg 83%
23:00 +18°C° 0 mm 2 m/s 754 mmHg 84%

20 Mai, Jeudi

Heure Température Précipitation Vent Pression Humidité
00:00 +18°C° 0 mm 2 m/s 754 mmHg 85%
01:00 +18°C° 0 mm 2 m/s 754 mmHg 85%
02:00 +17°C° 0 mm 2 m/s 754 mmHg 86%
03:00 +17°C° 0 mm 2 m/s 754 mmHg 86%
04:00 +18°C° 0 mm 3 m/s 753 mmHg 84%
05:00 +18°C° 0 mm 3 m/s 753 mmHg 81%
06:00 +18°C° 0 mm 4 m/s 753 mmHg 79%
07:00 +20°C° 0 mm 4 m/s 753 mmHg 74%
08:00 +22°C° 0 mm 5 m/s 753 mmHg 69%
09:00 +23°C° 0 mm 6 m/s 754 mmHg 63%
10:00 +24°C° 0 mm 6 m/s 753 mmHg 60%
11:00 +26°C° 0 mm 6 m/s 753 mmHg 57%
12:00 +27°C° 0 mm 6 m/s 753 mmHg 54%
13:00 +28°C° 0 mm 6 m/s 753 mmHg 52%
14:00 +28°C° 0 mm 6 m/s 753 mmHg 50%
15:00 +29°C° 0 mm 5 m/s 753 mmHg 48%
16:00 +28°C° 0 mm 4 m/s 752 mmHg 52%
17:00 +28°C° 0 mm 3 m/s 752 mmHg 56%
18:00 +28°C° 0 mm 2 m/s 752 mmHg 60%
19:00 +26°C° 0 mm 2 m/s 752 mmHg 61%
20:00 +25°C° 0 mm 2 m/s 752 mmHg 62%
21:00 +24°C° 0 mm 2 m/s 751 mmHg 63%
22:00 +24°C° 0.1 mm 3 m/s 751 mmHg 65%
23:00 +22°C° 0.1 mm 3 m/s 751 mmHg 68%
Voir plus

Nous avons besoin de votre consentement

Meteoprog et ses fournisseurs de services peuvent stocker et accéder à des données personnelles telles que des cookies, des identifiants d'appareils ou d'autres technologies similaires sur votre appareil et traiter ces données pour personnaliser le contenu et les publicités, ainsi que pour fournir des fonctionnalités de médias sociaux et analyser le trafic.

  • Stocker et/ou accéder à des informations sur votre appareil

    Des cookies, des identifiants d'appareils ou d'autres informations peuvent être stockés ou accessibles sur votre appareil aux fins indiquées ci-dessus.

  • Annonces et contenus personnalisés, mesure des annonces et des contenus, connaissance de l'audience et développement de produits

    Les annonces et le contenu peuvent être personnalisés en fonction d'un profil. D'autres données peuvent être ajoutées pour mieux personnaliser les annonces et le contenu. Les performances des publicités et du contenu peuvent être mesurées. Il est possible d'obtenir des informations sur le public qui a vu les publicités et le contenu. Ces données peuvent être utilisées pour développer ou améliorer l'expérience de l'utilisateur, les systèmes et les logiciels.

En cliquant sur "J'accepte", vous autorisez l'utilisation de cookies, des identifiants d'appareils, des balises web ou d'autres technologies similaires. Vos paramètres peuvent être modifiés dans le navigateur de votre appareil.

Dans certains cas, des intérêts légitimes peuvent être invoqués plutôt qu'un consentement. Vous pouvez en savoir plus à ce sujet dans notre Politique de confidentialité et de cookies.